Terminal Aerodrome Forecast
Issued by NWS Green Bay, WI

Home | Current Version | Previous Version | Graphics & Text | Print | Product List | Glossary On
Versions: 1 2 3 4 5 6 7 8 9 10 11 12 13 14 15 16 17 18 19 20 21 22 23 24 25 26 27
000
FTUS43 KGRB 300102 AAB
TAFGRB
TAF AMD
KGRB 300102Z 3001/3024 27006KT P6SM SKC
     FM301500 28014G24KT P6SM FEW035
     FM301800 28012G22KT P6SM SCT040
     FM302100 29010G20KT P6SM BKN050=

USA.gov is the U.S. government's official web portal to all federal, state and local government web resources and services.